Year,Month,Day,Hour,Minute,Value (Times are PST for temperature in C)
2011,08,08,00,00,14.70
2011,08,08,00,01,14.70
2011,08,08,00,02,14.60
2011,08,08,00,03,14.60
2011,08,08,00,04,14.60
2011,08,08,00,05,14.60
2011,08,08,00,06,14.60
2011,08,08,00,07,14.60
2011,08,08,00,08,14.60
2011,08,08,00,09,14.60
2011,08,08,00,10,14.60
2011,08,08,00,11,14.50
2011,08,08,00,12,14.60
2011,08,08,00,13,14.60
2011,08,08,00,14,14.60
2011,08,08,00,15,14.50
2011,08,08,00,16,14.50
2011,08,08,00,17,14.50
2011,08,08,00,18,14.50
2011,08,08,00,19,14.50
2011,08,08,00,20,14.50
2011,08,08,00,21,14.40
2011,08,08,00,22,14.40
2011,08,08,00,23,14.40
2011,08,08,00,24,14.40
2011,08,08,00,25,14.40
2011,08,08,00,26,14.40
2011,08,08,00,27,14.30
2011,08,08,00,28,14.30
2011,08,08,00,29,14.30
2011,08,08,00,30,14.30
2011,08,08,00,31,14.30
2011,08,08,00,32,14.30
2011,08,08,00,33,14.20
2011,08,08,00,34,14.20
2011,08,08,00,35,14.20
2011,08,08,00,36,14.10
2011,08,08,00,37,14.00
2011,08,08,00,38,14.00
2011,08,08,00,39,13.90
2011,08,08,00,40,13.90
2011,08,08,00,41,13.90
2011,08,08,00,42,13.90
2011,08,08,00,43,13.80
2011,08,08,00,44,13.80
2011,08,08,00,45,13.80
2011,08,08,00,46,13.80
2011,08,08,00,47,13.80
2011,08,08,00,48,13.80
2011,08,08,00,49,13.80
2011,08,08,00,50,13.80
2011,08,08,00,51,13.80
2011,08,08,00,52,13.80
2011,08,08,00,53,13.80
2011,08,08,00,54,13.80
2011,08,08,00,55,13.80
2011,08,08,00,56,13.80
2011,08,08,00,57,13.80
2011,08,08,00,58,13.80
2011,08,08,00,59,13.80
2011,08,08,01,00,13.80
2011,08,08,01,01,13.80
2011,08,08,01,02,13.80
2011,08,08,01,03,13.80
2011,08,08,01,04,13.70
2011,08,08,01,05,13.70
2011,08,08,01,06,13.70
2011,08,08,01,07,13.70
2011,08,08,01,08,13.70
2011,08,08,01,09,13.70
2011,08,08,01,10,13.70
2011,08,08,01,11,13.70
2011,08,08,01,12,13.70
2011,08,08,01,13,13.70
2011,08,08,01,14,13.60
2011,08,08,01,15,13.60
2011,08,08,01,16,13.60
2011,08,08,01,17,13.60
2011,08,08,01,18,13.60
2011,08,08,01,19,13.60
2011,08,08,01,20,13.60
2011,08,08,01,21,13.60
2011,08,08,01,22,13.60
2011,08,08,01,23,13.60
2011,08,08,01,24,13.60
2011,08,08,01,25,13.60
2011,08,08,01,26,13.60
2011,08,08,01,27,13.60
2011,08,08,01,28,13.60
2011,08,08,01,29,13.70
2011,08,08,01,30,13.70
2011,08,08,01,31,13.70
2011,08,08,01,32,13.60
2011,08,08,01,33,13.60
2011,08,08,01,34,13.60
2011,08,08,01,35,13.60
2011,08,08,01,36,13.60
2011,08,08,01,37,13.60
2011,08,08,01,38,13.60
2011,08,08,01,39,13.60
2011,08,08,01,40,13.50
2011,08,08,01,41,13.50
2011,08,08,01,42,13.50
2011,08,08,01,43,13.50
2011,08,08,01,44,13.40
2011,08,08,01,45,13.40
2011,08,08,01,46,13.40
2011,08,08,01,47,13.40
2011,08,08,01,48,13.40
2011,08,08,01,49,13.40
2011,08,08,01,50,13.40
2011,08,08,01,51,13.40
2011,08,08,01,52,13.40
2011,08,08,01,53,13.40
2011,08,08,01,54,13.40
2011,08,08,01,55,13.40
2011,08,08,01,56,13.40
2011,08,08,01,57,13.40
2011,08,08,01,58,13.40
2011,08,08,01,59,13.40
2011,08,08,02,00,13.40
2011,08,08,02,01,13.40
2011,08,08,02,02,13.40
2011,08,08,02,03,13.40
2011,08,08,02,04,13.30
2011,08,08,02,05,13.30
2011,08,08,02,06,13.30
2011,08,08,02,07,13.30
2011,08,08,02,08,13.30
2011,08,08,02,09,13.30
2011,08,08,02,10,13.30
2011,08,08,02,11,13.30
2011,08,08,02,12,13.30
2011,08,08,02,13,13.30
2011,08,08,02,14,13.30
2011,08,08,02,15,13.30
2011,08,08,02,16,13.30
2011,08,08,02,17,13.30
2011,08,08,02,18,13.30
2011,08,08,02,19,13.30
2011,08,08,02,20,13.30
2011,08,08,02,21,13.30
2011,08,08,02,22,13.30
2011,08,08,02,23,13.30
2011,08,08,02,24,13.30
2011,08,08,02,25,13.30
2011,08,08,02,26,13.20
2011,08,08,02,27,13.20
2011,08,08,02,28,13.20
2011,08,08,02,29,13.20
2011,08,08,02,30,13.20
2011,08,08,02,31,13.20
2011,08,08,02,32,13.20
2011,08,08,02,33,13.10
2011,08,08,02,34,13.10
2011,08,08,02,35,13.10
2011,08,08,02,36,13.10
2011,08,08,02,37,13.10
2011,08,08,02,38,13.00
2011,08,08,02,39,13.00
2011,08,08,02,40,13.10
2011,08,08,02,41,13.10
2011,08,08,02,42,13.10
2011,08,08,02,43,13.10
2011,08,08,02,44,13.00
2011,08,08,02,45,13.00
2011,08,08,02,46,13.00
2011,08,08,02,47,13.00
2011,08,08,02,48,13.00
2011,08,08,02,49,13.00
2011,08,08,02,50,13.00
2011,08,08,02,51,12.90
2011,08,08,02,52,12.90
2011,08,08,02,53,12.90
2011,08,08,02,54,12.90
2011,08,08,02,55,12.90
2011,08,08,02,56,12.90
2011,08,08,02,57,12.80
2011,08,08,02,58,12.80
2011,08,08,02,59,12.80
2011,08,08,03,00,12.80
2011,08,08,03,01,12.80
2011,08,08,03,02,12.80
2011,08,08,03,03,12.80
2011,08,08,03,04,12.80
2011,08,08,03,05,12.80
2011,08,08,03,06,12.80
2011,08,08,03,07,12.80
2011,08,08,03,08,12.80
2011,08,08,03,09,12.70
2011,08,08,03,10,12.70
2011,08,08,03,11,12.70
2011,08,08,03,12,12.70
2011,08,08,03,13,12.70
2011,08,08,03,14,12.70
2011,08,08,03,15,12.70
2011,08,08,03,16,12.70
2011,08,08,03,17,12.70
2011,08,08,03,18,12.70
2011,08,08,03,19,12.70
2011,08,08,03,20,12.70
2011,08,08,03,21,12.70
2011,08,08,03,22,12.70
2011,08,08,03,23,12.70
2011,08,08,03,24,12.70
2011,08,08,03,25,12.70
2011,08,08,03,26,12.70
2011,08,08,03,27,12.70
2011,08,08,03,28,12.70
2011,08,08,03,29,12.70
2011,08,08,03,30,12.70
2011,08,08,03,31,12.70
2011,08,08,03,32,12.70
2011,08,08,03,33,12.70
2011,08,08,03,34,12.70
2011,08,08,03,35,12.70
2011,08,08,03,36,12.70
2011,08,08,03,37,12.70
2011,08,08,03,38,12.70
2011,08,08,03,39,12.60
2011,08,08,03,40,12.60
2011,08,08,03,41,12.60
2011,08,08,03,42,12.60
2011,08,08,03,43,12.50
2011,08,08,03,44,12.50
2011,08,08,03,45,12.50
2011,08,08,03,46,12.40
2011,08,08,03,47,12.40
2011,08,08,03,48,12.40
2011,08,08,03,49,12.40
2011,08,08,03,50,12.40
2011,08,08,03,51,12.40
2011,08,08,03,52,12.40
2011,08,08,03,53,12.30
2011,08,08,03,54,12.30
2011,08,08,03,55,12.30
2011,08,08,03,56,12.30
2011,08,08,03,57,12.30
2011,08,08,03,58,12.30
2011,08,08,03,59,12.30
2011,08,08,04,00,12.30
2011,08,08,04,01,12.30
2011,08,08,04,02,12.30
2011,08,08,04,03,12.30
2011,08,08,04,04,12.40
2011,08,08,04,05,12.40
2011,08,08,04,06,12.40
2011,08,08,04,07,12.40
2011,08,08,04,08,12.40
2011,08,08,04,09,12.40
2011,08,08,04,10,12.40
2011,08,08,04,11,12.40
2011,08,08,04,12,12.40
2011,08,08,04,13,12.40
2011,08,08,04,14,12.40
2011,08,08,04,15,12.40
2011,08,08,04,16,12.30
2011,08,08,04,17,12.30
2011,08,08,04,18,12.30
2011,08,08,04,19,12.30
2011,08,08,04,20,12.30
2011,08,08,04,21,12.30
2011,08,08,04,22,12.30
2011,08,08,04,23,12.30
2011,08,08,04,24,12.30
2011,08,08,04,25,12.30
2011,08,08,04,26,12.30
2011,08,08,04,27,12.30
2011,08,08,04,28,12.20
2011,08,08,04,29,12.20
2011,08,08,04,30,12.20
2011,08,08,04,31,12.20
2011,08,08,04,32,12.20
2011,08,08,04,33,12.20
2011,08,08,04,34,12.20
2011,08,08,04,35,12.20
2011,08,08,04,36,12.20
2011,08,08,04,37,12.20
2011,08,08,04,38,12.20
2011,08,08,04,39,12.10
2011,08,08,04,40,12.10
2011,08,08,04,41,12.10
2011,08,08,04,42,12.10
2011,08,08,04,43,12.10
2011,08,08,04,44,12.10
2011,08,08,04,45,12.10
2011,08,08,04,46,12.10
2011,08,08,04,47,12.10
2011,08,08,04,48,12.00
2011,08,08,04,49,12.00
2011,08,08,04,50,12.00
2011,08,08,04,51,12.00
2011,08,08,04,52,11.90
2011,08,08,04,53,11.90
2011,08,08,04,54,11.90
2011,08,08,04,55,11.90
2011,08,08,04,56,11.90
2011,08,08,04,57,11.80
2011,08,08,04,58,11.80
2011,08,08,04,59,11.80
2011,08,08,05,00,11.80
2011,08,08,05,01,11.80
2011,08,08,05,02,11.80
2011,08,08,05,03,11.80
2011,08,08,05,04,11.80
2011,08,08,05,05,11.80
2011,08,08,05,06,11.80
2011,08,08,05,07,11.80
2011,08,08,05,08,11.80
2011,08,08,05,09,11.80
2011,08,08,05,10,11.80
2011,08,08,05,11,11.80
2011,08,08,05,12,11.70
2011,08,08,05,13,11.70
2011,08,08,05,14,11.70
2011,08,08,05,15,11.70
2011,08,08,05,16,11.70
2011,08,08,05,17,11.70
2011,08,08,05,18,11.70
2011,08,08,05,19,11.70
2011,08,08,05,20,11.70
2011,08,08,05,21,11.70
2011,08,08,05,22,11.70
2011,08,08,05,23,11.70
2011,08,08,05,24,11.70
2011,08,08,05,25,11.70
2011,08,08,05,26,11.70
2011,08,08,05,27,11.70
2011,08,08,05,28,11.70
2011,08,08,05,29,11.70
2011,08,08,05,30,11.70
2011,08,08,05,31,11.70
2011,08,08,05,32,11.70
2011,08,08,05,33,11.60
2011,08,08,05,34,11.60
2011,08,08,05,35,11.60
2011,08,08,05,36,11.60
2011,08,08,05,37,11.60
2011,08,08,05,38,11.60
2011,08,08,05,39,11.60
2011,08,08,05,40,11.60
2011,08,08,05,41,11.60
2011,08,08,05,42,11.50
2011,08,08,05,43,11.50
2011,08,08,05,44,11.50
2011,08,08,05,45,11.50
2011,08,08,05,46,11.50
2011,08,08,05,47,11.40
2011,08,08,05,48,11.40
2011,08,08,05,49,11.40
2011,08,08,05,50,11.40
2011,08,08,05,51,11.40
2011,08,08,05,52,11.30
2011,08,08,05,53,11.30
2011,08,08,05,54,11.30
2011,08,08,05,55,11.30
2011,08,08,05,56,11.30
2011,08,08,05,57,11.30
2011,08,08,05,58,11.30
2011,08,08,05,59,11.30
2011,08,08,06,00,11.30
2011,08,08,06,01,11.30
2011,08,08,06,02,11.30
2011,08,08,06,03,11.30
2011,08,08,06,04,11.30
2011,08,08,06,05,11.30
2011,08,08,06,06,11.30
2011,08,08,06,07,11.30
2011,08,08,06,08,11.30
2011,08,08,06,09,11.30
2011,08,08,06,10,11.30
2011,08,08,06,11,11.30
2011,08,08,06,12,11.30
2011,08,08,06,13,11.20
2011,08,08,06,14,11.20
2011,08,08,06,15,11.20
2011,08,08,06,16,11.20
2011,08,08,06,17,11.30
2011,08,08,06,18,11.20
2011,08,08,06,19,11.30
2011,08,08,06,20,11.20
2011,08,08,06,21,11.20
2011,08,08,06,22,11.20
2011,08,08,06,23,11.20
2011,08,08,06,24,11.20
2011,08,08,06,25,11.30
2011,08,08,06,26,11.30
2011,08,08,06,27,11.30
2011,08,08,06,28,11.30
2011,08,08,06,29,11.30
2011,08,08,06,30,11.30
2011,08,08,06,31,11.30
2011,08,08,06,32,11.30
2011,08,08,06,33,11.30
2011,08,08,06,34,11.30
2011,08,08,06,35,11.30
2011,08,08,06,36,11.40
2011,08,08,06,37,11.40
2011,08,08,06,38,11.40
2011,08,08,06,39,11.40
2011,08,08,06,40,11.40
2011,08,08,06,41,11.40
2011,08,08,06,42,11.50
2011,08,08,06,43,11.50
2011,08,08,06,44,11.50
2011,08,08,06,45,11.50
2011,08,08,06,46,11.50
2011,08,08,06,47,11.50
2011,08,08,06,48,11.60
2011,08,08,06,49,11.60
2011,08,08,06,50,11.60
2011,08,08,06,51,11.60
2011,08,08,06,52,11.60
2011,08,08,06,53,11.70
2011,08,08,06,54,11.70
2011,08,08,06,55,11.70
2011,08,08,06,56,11.70
2011,08,08,06,57,11.70
2011,08,08,06,58,11.70
2011,08,08,06,59,11.70
2011,08,08,07,00,11.80
2011,08,08,07,01,11.80
2011,08,08,07,02,11.90
2011,08,08,07,03,11.90
2011,08,08,07,04,12.00
2011,08,08,07,05,12.00
2011,08,08,07,06,12.10
2011,08,08,07,07,12.20
2011,08,08,07,08,12.20
2011,08,08,07,09,12.30
2011,08,08,07,10,12.30
2011,08,08,07,11,12.30
2011,08,08,07,12,12.30
2011,08,08,07,13,12.40
2011,08,08,07,14,12.40
2011,08,08,07,15,12.40
2011,08,08,07,16,12.50
2011,08,08,07,17,12.50
2011,08,08,07,18,12.60
2011,08,08,07,19,12.60
2011,08,08,07,20,12.70
2011,08,08,07,21,12.70
2011,08,08,07,22,12.70
2011,08,08,07,23,12.70
2011,08,08,07,24,12.70
2011,08,08,07,25,12.70
2011,08,08,07,26,12.70
2011,08,08,07,27,12.70
2011,08,08,07,28,12.80
2011,08,08,07,29,12.80
2011,08,08,07,30,12.80
2011,08,08,07,31,12.90
2011,08,08,07,32,12.90
2011,08,08,07,33,13.00
2011,08,08,07,34,13.00
2011,08,08,07,35,13.10
2011,08,08,07,36,13.10
2011,08,08,07,37,13.10
2011,08,08,07,38,13.20
2011,08,08,07,39,13.20
2011,08,08,07,40,13.20
2011,08,08,07,41,13.20
2011,08,08,07,42,13.20
2011,08,08,07,43,13.20
2011,08,08,07,44,13.20
2011,08,08,07,45,13.20
2011,08,08,07,46,13.20
2011,08,08,07,47,13.30
2011,08,08,07,48,13.30
2011,08,08,07,49,13.30
2011,08,08,07,50,13.30
2011,08,08,07,51,13.30
2011,08,08,07,52,13.30
2011,08,08,07,53,13.40
2011,08,08,07,54,13.40
2011,08,08,07,55,13.50
2011,08,08,07,56,13.50
2011,08,08,07,57,13.60
2011,08,08,07,58,13.60
2011,08,08,07,59,13.70
2011,08,08,08,00,13.70
2011,08,08,08,01,13.80
2011,08,08,08,02,13.80
2011,08,08,08,03,13.90
2011,08,08,08,04,13.90
2011,08,08,08,05,14.00
2011,08,08,08,06,14.10
2011,08,08,08,07,14.20
2011,08,08,08,08,14.30
2011,08,08,08,09,14.40
2011,08,08,08,10,14.40
2011,08,08,08,11,14.50
2011,08,08,08,12,14.60
2011,08,08,08,13,14.60
2011,08,08,08,14,14.70
2011,08,08,08,15,14.70
2011,08,08,08,16,14.80
2011,08,08,08,17,14.80
2011,08,08,08,18,14.90
2011,08,08,08,19,15.00
2011,08,08,08,20,15.00
2011,08,08,08,21,15.10
2011,08,08,08,22,15.20
2011,08,08,08,23,15.30
2011,08,08,08,24,15.40
2011,08,08,08,25,15.50
2011,08,08,08,26,15.60
2011,08,08,08,27,15.70
2011,08,08,08,28,15.80
2011,08,08,08,29,15.90
2011,08,08,08,30,16.00
2011,08,08,08,31,16.10
2011,08,08,08,32,16.20
2011,08,08,08,33,16.30
2011,08,08,08,34,16.50
2011,08,08,08,35,16.60
2011,08,08,08,36,16.60
2011,08,08,08,37,16.60
2011,08,08,08,38,16.70
2011,08,08,08,39,16.70
2011,08,08,08,40,16.80
2011,08,08,08,41,16.80
2011,08,08,08,42,16.80
2011,08,08,08,43,16.80
2011,08,08,08,44,16.80
2011,08,08,08,45,16.70
2011,08,08,08,46,16.70
2011,08,08,08,47,16.70
2011,08,08,08,48,16.80
2011,08,08,08,49,16.80
2011,08,08,08,50,16.80
2011,08,08,08,51,16.80
2011,08,08,08,52,16.90
2011,08,08,08,53,16.90
2011,08,08,08,54,17.00
2011,08,08,08,55,17.00
2011,08,08,08,56,17.10
2011,08,08,08,57,17.10
2011,08,08,08,58,17.20
2011,08,08,08,59,17.20
2011,08,08,09,00,17.30
2011,08,08,09,01,17.30
2011,08,08,09,02,17.30
2011,08,08,09,03,17.40
2011,08,08,09,04,17.50
2011,08,08,09,05,17.50
2011,08,08,09,06,17.50
2011,08,08,09,07,17.50
2011,08,08,09,08,17.60
2011,08,08,09,09,17.60
2011,08,08,09,10,17.70
2011,08,08,09,11,17.80
2011,08,08,09,12,17.80
2011,08,08,09,13,17.90
2011,08,08,09,14,17.90
2011,08,08,09,15,17.90
2011,08,08,09,16,17.80
2011,08,08,09,17,17.80
2011,08,08,09,18,17.80
2011,08,08,09,19,17.70
2011,08,08,09,20,17.60
2011,08,08,09,21,17.60
2011,08,08,09,22,17.50
2011,08,08,09,23,17.40
2011,08,08,09,24,17.30
2011,08,08,09,25,17.20
2011,08,08,09,26,17.10
2011,08,08,09,27,17.10
2011,08,08,09,28,17.00
2011,08,08,09,29,17.00
2011,08,08,09,30,16.90
2011,08,08,09,31,16.80
2011,08,08,09,32,16.70
2011,08,08,09,33,16.70
2011,08,08,09,34,16.60
2011,08,08,09,35,16.60
2011,08,08,09,36,16.60
2011,08,08,09,37,16.60
2011,08,08,09,38,16.60
2011,08,08,09,39,16.60
2011,08,08,09,40,16.60
2011,08,08,09,41,16.60
2011,08,08,09,42,16.50
2011,08,08,09,43,16.50
2011,08,08,09,44,16.50
2011,08,08,09,45,16.40
2011,08,08,09,46,16.40
2011,08,08,09,47,16.40
2011,08,08,09,48,16.40
2011,08,08,09,49,16.40
2011,08,08,09,50,16.40
2011,08,08,09,51,16.40
2011,08,08,09,52,16.50
2011,08,08,09,53,16.50
2011,08,08,09,54,16.60
2011,08,08,09,55,16.60
2011,08,08,09,56,16.60
2011,08,08,09,57,16.60
2011,08,08,09,58,16.60
2011,08,08,09,59,16.60
2011,08,08,10,00,16.70
2011,08,08,10,01,16.70
2011,08,08,10,02,16.70
2011,08,08,10,03,16.70
2011,08,08,10,04,16.70
2011,08,08,10,05,16.80
2011,08,08,10,06,16.80
2011,08,08,10,07,16.80
2011,08,08,10,08,16.80
2011,08,08,10,09,16.90
2011,08,08,10,10,16.90
2011,08,08,10,11,16.90
2011,08,08,10,12,16.90
2011,08,08,10,13,16.90
2011,08,08,10,14,16.90
2011,08,08,10,15,16.90
2011,08,08,10,16,16.90
2011,08,08,10,17,16.90
2011,08,08,10,18,16.90
2011,08,08,10,19,17.00
2011,08,08,10,20,17.00
2011,08,08,10,21,17.00
2011,08,08,10,22,17.10
2011,08,08,10,23,17.10
2011,08,08,10,24,17.00
2011,08,08,10,25,17.00
2011,08,08,10,26,16.90
2011,08,08,10,27,16.90
2011,08,08,10,28,16.80
2011,08,08,10,29,16.80
2011,08,08,10,30,16.80
2011,08,08,10,31,16.90
2011,08,08,10,32,16.90
2011,08,08,10,33,16.90
2011,08,08,10,34,16.90
2011,08,08,10,35,16.90
2011,08,08,10,36,16.80
2011,08,08,10,37,16.80
2011,08,08,10,38,16.70
2011,08,08,10,39,16.60
2011,08,08,10,40,16.60
2011,08,08,10,41,16.60
2011,08,08,10,42,16.60
2011,08,08,10,43,16.60
2011,08,08,10,44,16.60
2011,08,08,10,45,16.60
2011,08,08,10,46,16.60
2011,08,08,10,47,16.60
2011,08,08,10,48,16.60
2011,08,08,10,49,16.60
2011,08,08,10,50,16.60
2011,08,08,10,51,16.60
2011,08,08,10,52,16.60
2011,08,08,10,53,16.70
2011,08,08,10,54,16.70
2011,08,08,10,55,16.70
2011,08,08,10,56,16.80
2011,08,08,10,57,16.80
2011,08,08,10,58,16.90
2011,08,08,10,59,16.90
2011,08,08,11,00,16.90
2011,08,08,11,01,16.90
2011,08,08,11,02,17.00
2011,08,08,11,03,17.00
2011,08,08,11,04,17.00
2011,08,08,11,05,17.10
2011,08,08,11,06,17.10
2011,08,08,11,07,17.10
2011,08,08,11,08,17.20
2011,08,08,11,09,17.10
2011,08,08,11,10,17.10
2011,08,08,11,11,17.00
2011,08,08,11,12,17.00
2011,08,08,11,13,17.10
2011,08,08,11,14,17.20
2011,08,08,11,15,17.30
2011,08,08,11,16,17.30
2011,08,08,11,17,17.30
2011,08,08,11,18,17.30
2011,08,08,11,19,17.30
2011,08,08,11,20,17.20
2011,08,08,11,21,17.10
2011,08,08,11,22,17.10
2011,08,08,11,23,17.10
2011,08,08,11,24,17.10
2011,08,08,11,25,17.00
2011,08,08,11,26,17.00
2011,08,08,11,27,17.10
2011,08,08,11,28,17.10
2011,08,08,11,29,17.10
2011,08,08,11,30,17.10
2011,08,08,11,31,17.20
2011,08,08,11,32,17.20
2011,08,08,11,33,17.20
2011,08,08,11,34,17.20
2011,08,08,11,35,17.20
2011,08,08,11,36,17.30
2011,08,08,11,37,17.30
2011,08,08,11,38,17.30
2011,08,08,11,39,17.30
2011,08,08,11,40,17.30
2011,08,08,11,41,17.20
2011,08,08,11,42,17.20
2011,08,08,11,43,17.20
2011,08,08,11,44,17.20
2011,08,08,11,45,17.10
2011,08,08,11,46,17.10
2011,08,08,11,47,17.00
2011,08,08,11,48,17.00
2011,08,08,11,49,17.00
2011,08,08,11,50,17.00
2011,08,08,11,51,17.10
2011,08,08,11,52,17.10
2011,08,08,11,53,17.20
2011,08,08,11,54,17.20
2011,08,08,11,55,17.20
2011,08,08,11,56,17.20
2011,08,08,11,57,17.20
2011,08,08,11,58,17.20
2011,08,08,11,59,17.30
2011,08,08,12,00,17.40
2011,08,08,12,01,17.40
2011,08,08,12,02,17.50
2011,08,08,12,03,17.60
2011,08,08,12,04,17.70
2011,08,08,12,05,17.70
2011,08,08,12,06,17.70
2011,08,08,12,07,17.70
2011,08,08,12,08,17.70
2011,08,08,12,09,17.60
2011,08,08,12,10,17.60
2011,08,08,12,11,17.60
2011,08,08,12,12,17.60
2011,08,08,12,13,17.70
2011,08,08,12,14,17.70
2011,08,08,12,15,17.70
2011,08,08,12,16,17.70
2011,08,08,12,17,17.80
2011,08,08,12,18,17.80
2011,08,08,12,19,17.80
2011,08,08,12,20,17.80
2011,08,08,12,21,17.80
2011,08,08,12,22,17.80
2011,08,08,12,23,17.80
2011,08,08,12,24,17.80
2011,08,08,12,25,17.80
2011,08,08,12,26,17.80
2011,08,08,12,27,17.80
2011,08,08,12,28,17.80
2011,08,08,12,29,17.90
2011,08,08,12,30,17.90
2011,08,08,12,31,17.90
2011,08,08,12,32,17.90
2011,08,08,12,33,17.90
2011,08,08,12,34,18.00
2011,08,08,12,35,18.00
2011,08,08,12,36,17.90
2011,08,08,12,37,17.90
2011,08,08,12,38,17.80
2011,08,08,12,39,17.80
2011,08,08,12,40,17.80
2011,08,08,12,41,17.90
2011,08,08,12,42,17.90
2011,08,08,12,43,17.90
2011,08,08,12,44,18.00
2011,08,08,12,45,18.00
2011,08,08,12,46,17.90
2011,08,08,12,47,17.90
2011,08,08,12,48,17.80
2011,08,08,12,49,17.80
2011,08,08,12,50,17.70
2011,08,08,12,51,17.70
2011,08,08,12,52,17.80
2011,08,08,12,53,17.80
2011,08,08,12,54,17.80
2011,08,08,12,55,17.80
2011,08,08,12,56,17.90
2011,08,08,12,57,17.90
2011,08,08,12,58,17.90
2011,08,08,12,59,17.90
2011,08,08,13,00,17.90
2011,08,08,13,01,17.90
2011,08,08,13,02,17.90
2011,08,08,13,03,17.90
2011,08,08,13,04,18.00
2011,08,08,13,05,18.00
2011,08,08,13,06,17.90
2011,08,08,13,07,17.80
2011,08,08,13,08,17.80
2011,08,08,13,09,17.70
2011,08,08,13,10,17.70
2011,08,08,13,11,17.80
2011,08,08,13,12,17.90
2011,08,08,13,13,18.00
2011,08,08,13,14,18.00
2011,08,08,13,15,18.00
2011,08,08,13,16,18.00
2011,08,08,13,17,18.00
2011,08,08,13,18,18.00
2011,08,08,13,19,18.00
2011,08,08,13,20,17.90
2011,08,08,13,21,17.90
2011,08,08,13,22,18.00
2011,08,08,13,23,18.00
2011,08,08,13,24,18.00
2011,08,08,13,25,17.90
2011,08,08,13,26,17.90
2011,08,08,13,27,17.90
2011,08,08,13,28,17.90
2011,08,08,13,29,18.00
2011,08,08,13,30,18.10
2011,08,08,13,31,18.10
2011,08,08,13,32,18.10
2011,08,08,13,33,18.00
2011,08,08,13,34,18.00
2011,08,08,13,35,18.00
2011,08,08,13,36,18.00
2011,08,08,13,37,18.00
2011,08,08,13,38,18.10
2011,08,08,13,39,18.10
2011,08,08,13,40,18.00
2011,08,08,13,41,18.00
2011,08,08,13,42,17.90
2011,08,08,13,43,17.90
2011,08,08,13,44,17.90
2011,08,08,13,45,18.00
2011,08,08,13,46,18.00
2011,08,08,13,47,18.10
2011,08,08,13,48,18.10
2011,08,08,13,49,18.10
2011,08,08,13,50,18.10
2011,08,08,13,51,18.20
2011,08,08,13,52,18.20
2011,08,08,13,53,18.20
2011,08,08,13,54,18.20
2011,08,08,13,55,18.20
2011,08,08,13,56,18.20
2011,08,08,13,57,18.20
2011,08,08,13,58,18.20
2011,08,08,13,59,18.30
2011,08,08,14,00,18.30
2011,08,08,14,01,18.30
2011,08,08,14,02,18.30
2011,08,08,14,03,18.40
2011,08,08,14,04,18.40
2011,08,08,14,05,18.30
2011,08,08,14,06,18.30
2011,08,08,14,07,18.30
2011,08,08,14,08,18.20
2011,08,08,14,09,18.10
2011,08,08,14,10,18.10
2011,08,08,14,11,18.00
2011,08,08,14,12,18.00
2011,08,08,14,13,18.00
2011,08,08,14,14,18.10
2011,08,08,14,15,18.10
2011,08,08,14,16,18.20
2011,08,08,14,17,18.20
2011,08,08,14,18,18.10
2011,08,08,14,19,18.10
2011,08,08,14,20,18.10
2011,08,08,14,21,18.10
2011,08,08,14,22,18.10
2011,08,08,14,23,18.10
2011,08,08,14,24,18.20
2011,08,08,14,25,18.20
2011,08,08,14,26,18.20
2011,08,08,14,27,18.20
2011,08,08,14,28,18.20
2011,08,08,14,29,18.10
2011,08,08,14,30,18.10
2011,08,08,14,31,18.10
2011,08,08,14,32,18.20
2011,08,08,14,33,18.20
2011,08,08,14,34,18.20
2011,08,08,14,35,18.20
2011,08,08,14,36,18.20
2011,08,08,14,37,18.20
2011,08,08,14,38,18.20
2011,08,08,14,39,18.20
2011,08,08,14,40,18.20
2011,08,08,14,41,18.20
2011,08,08,14,42,18.30
2011,08,08,14,43,18.30
2011,08,08,14,44,18.20
2011,08,08,14,45,18.20
2011,08,08,14,46,18.20
2011,08,08,14,47,18.20
2011,08,08,14,48,18.30
2011,08,08,14,49,18.30
2011,08,08,14,50,18.20
2011,08,08,14,51,18.20
2011,08,08,14,52,18.10
2011,08,08,14,53,18.10
2011,08,08,14,54,18.20
2011,08,08,14,55,18.20
2011,08,08,14,56,18.30
2011,08,08,14,57,18.30
2011,08,08,14,58,18.30
2011,08,08,14,59,18.30
2011,08,08,15,00,18.30
2011,08,08,15,01,18.20
2011,08,08,15,02,18.20
2011,08,08,15,03,18.20
2011,08,08,15,04,18.20
2011,08,08,15,05,18.20
2011,08,08,15,06,18.20
2011,08,08,15,07,18.20
2011,08,08,15,08,18.20
2011,08,08,15,09,18.10
2011,08,08,15,10,18.10
2011,08,08,15,11,18.00
2011,08,08,15,12,17.90
2011,08,08,15,13,17.90
2011,08,08,15,14,17.90
2011,08,08,15,15,17.90
2011,08,08,15,16,17.90
2011,08,08,15,17,17.80
2011,08,08,15,18,17.80
2011,08,08,15,19,17.70
2011,08,08,15,20,17.60
2011,08,08,15,21,17.60
2011,08,08,15,22,17.60
2011,08,08,15,23,17.70
2011,08,08,15,24,17.60
2011,08,08,15,25,17.60
2011,08,08,15,26,17.60
2011,08,08,15,27,17.60
2011,08,08,15,28,17.60
2011,08,08,15,29,17.60
2011,08,08,15,30,17.70
2011,08,08,15,31,17.70
2011,08,08,15,32,17.70
2011,08,08,15,33,17.60
2011,08,08,15,34,17.50
2011,08,08,15,35,17.50
2011,08,08,15,36,17.40
2011,08,08,15,37,17.40
2011,08,08,15,38,17.30
2011,08,08,15,39,17.30
2011,08,08,15,40,17.40
2011,08,08,15,41,17.40
2011,08,08,15,42,17.50
2011,08,08,15,43,17.50
2011,08,08,15,44,17.60
2011,08,08,15,45,17.60
2011,08,08,15,46,17.60
2011,08,08,15,47,17.60
2011,08,08,15,48,17.60
2011,08,08,15,49,17.60
2011,08,08,15,50,17.60
2011,08,08,15,51,17.60
2011,08,08,15,52,17.60
2011,08,08,15,53,17.60
2011,08,08,15,54,17.60
2011,08,08,15,55,17.70
2011,08,08,15,56,17.80
2011,08,08,15,57,17.80
2011,08,08,15,58,17.90
2011,08,08,15,59,17.90
2011,08,08,16,00,17.90
2011,08,08,16,01,17.90
2011,08,08,16,02,18.00
2011,08,08,16,03,18.00
2011,08,08,16,04,18.00
2011,08,08,16,05,18.10
2011,08,08,16,06,18.10
2011,08,08,16,07,18.10
2011,08,08,16,08,18.10
2011,08,08,16,09,18.10
2011,08,08,16,10,18.10
2011,08,08,16,11,18.20
2011,08,08,16,12,18.20
2011,08,08,16,13,18.30
2011,08,08,16,14,18.30
2011,08,08,16,15,18.30
2011,08,08,16,16,18.40
2011,08,08,16,17,18.40
2011,08,08,16,18,18.50
2011,08,08,16,19,18.50
2011,08,08,16,20,18.60
2011,08,08,16,21,18.60
2011,08,08,16,22,18.70
2011,08,08,16,23,18.80
2011,08,08,16,24,18.80
2011,08,08,16,25,18.90
2011,08,08,16,26,19.00
2011,08,08,16,27,19.00
2011,08,08,16,28,19.10
2011,08,08,16,29,19.10
2011,08,08,16,30,19.20
2011,08,08,16,31,19.20
2011,08,08,16,32,19.30
2011,08,08,16,33,19.40
2011,08,08,16,34,19.40
2011,08,08,16,35,19.50
2011,08,08,16,36,19.60
2011,08,08,16,37,19.60
2011,08,08,16,38,19.70
2011,08,08,16,39,19.70
2011,08,08,16,40,19.80
2011,08,08,16,41,19.80
2011,08,08,16,42,19.80
2011,08,08,16,43,19.90
2011,08,08,16,44,19.90
2011,08,08,16,45,20.00
2011,08,08,16,46,20.00
2011,08,08,16,47,20.00
2011,08,08,16,48,20.00
2011,08,08,16,49,20.10
2011,08,08,16,50,20.10
2011,08,08,16,51,20.10
2011,08,08,16,52,20.20
2011,08,08,16,53,20.10
2011,08,08,16,54,20.20
2011,08,08,16,55,20.20
2011,08,08,16,56,20.20
2011,08,08,16,57,20.30
2011,08,08,16,58,20.30
2011,08,08,16,59,20.30
2011,08,08,17,00,20.30
2011,08,08,17,01,20.30
2011,08,08,17,02,20.30
2011,08,08,17,03,20.30
2011,08,08,17,04,20.30
2011,08,08,17,05,20.40
2011,08,08,17,06,20.40
2011,08,08,17,07,20.40
2011,08,08,17,08,20.40
2011,08,08,17,09,20.30
2011,08,08,17,10,20.30
2011,08,08,17,11,20.30
2011,08,08,17,12,20.30
2011,08,08,17,13,20.20
2011,08,08,17,14,20.20
2011,08,08,17,15,20.20
2011,08,08,17,16,20.20
2011,08,08,17,17,20.20
2011,08,08,17,18,20.20
2011,08,08,17,19,20.20